BREEZE-M R/B, 40883

Orbit data source: Space-Track

BREEZE-M R/B, 40883 is space debris in HEO originally from a launch on Fri, 28 Aug 2015 UTC launched from the Tyuratam Missile And Space Complex (TTMTR). Debris objects in space refer to the collection of defunct objects orbiting the Earth. Examples of debris include non-operational satellites, rocket bodies, and fragments generated from explosions, collisions, or faulty payload assembly.

Loading next visibility...
Identifier
40883, 2015-042B
Orbit
HEO
Country
Flag of CISCIS
Related business
Manufacturer
Khrunichev
Mission
Spacecraft
Bus & Motor
BRIZ, Unknown motor
Mass
~1,600 kg wet, 1,600 kg dry
Launch date (UTC)
2015-08-28 (11 years ago)
Launch vehicle
Unknown
Launch site
Tyuratam Missile And Space Complex (TTMTR)
Object type
Payload
Rocket body
Debris
Shape & HBR
Cyl, 2.0 m
Radar Cross Section
15.135 m², Large (>1 m²)

Expand to show TLE details & history
Last TLE update: 18 hours ago

TLE from 18 hours ago
0 BREEZE-M R/B
1 40883U 15042B   26118.30667392 -.00000326  00000-0  00000+0 0  9990
2 40883  27.9217  79.2887 7958782 153.3845 293.4780  1.10225893 42953
Epoch: 2026-04-28T07:21Z
TLE epoch observation values (Epoch: 2026-04-28T07:21:36.626Z)
Latitude
-0.00002°
Longitude
112.61168°
Altitude
43,694.823 km
Speed
2.419 km/s
True Right ascension
05h 17m 11s
True Declination
0° 00' 00"
Sunlit
Object was in daylight at epoch
Visualization orbit readout
Latitude
Unknown
Longitude
Unknown
Altitude
Unknown
Speed
Unknown
Apparent Right ascension
Unknown
Apparent Declination
Unknown
Sunlit
N/A
Visualization observer readout
Local Sidereal Time
08:40:36
Azimuth
Unknown
Elevation
Unknown
Doppler factor
Unknown
Orbital elements
Apogee altitude
64,720.314 km
Perigee altitude
1,703.003 km
Semi-major axis
39,589.796 km
Eccentricity
0.79588
Inclination
27.9217°
RAAN
79.2887°
Arg. of periapsis
153.3845°
True anomaly
206.80078°
Mean anomaly
293.478°
Eccentric anomaly
250.49456°
Mean motion
0.27553 °/min
Orbital period
1,306.57 mins
BSTAR
0
Loading maneuver chart data...
Computing Atmospheric mass density...
Loading historical data...
Loading historical data...
Loading historical data...
Loading historical data...
Loading historical data...
Loading historical data...
Loading historical data...
Other satellites on launch #42 in the year 2015 (2015-08-28 UTC)

Documentation

Showing up to 5 results
|